Date_and_time,latitude,longitude,wind_speed,RelWindDirFrom,WindDirFrom,air_pressure,air_temperature,relative_humidity,Temp,platform_speed_wrt_ground,air_pressure_at_mean_sea_level,platform_orientation
2019-06-29 23:40,50.630435,-96.980765,5.2,6.3,134,987.38,25.0,61,23.58,0.0,1012.86,270.0
2019-06-29 23:50,50.6304366666667,-96.98077,5.7,6.8,128,987.34,25.1,62,23.56,0.0,1012.82,270.0
2019-06-30 00:00,50.6304383333333,-96.9807716666667,5.7,6.9,123,987.29,25.0,65,23.53,0.0,1012.78,360.0
2019-06-30 00:10,50.63044,-96.9807716666667,6.6,7.7,122,987.15,24.8,66,23.47,0.0,1012.64,360.0
2019-06-30 00:20,50.63044,-96.9807716666667,7.1,8.4,123,987.04,24.7,66,23.58,0.0,1012.54,360.0
2019-06-30 00:30,50.63044,-96.9807716666667,6.7,8.3,131,987.01,24.4,67,23.69,0.0,1012.54,360.0
2019-06-30 00:40,50.6304266666667,-96.98077,7.7,9.7,153,987.05,24.5,62,23.64,0.0,1012.57,360.0
2019-06-30 00:50,50.6304016666667,-96.9807533333333,7.3,9.3,155,987.01,24.8,61,23.56,0.0,1012.51,360.0
2019-06-30 01:00,50.6304366666667,-96.9807616666667,7.1,8.7,155,987.05,24.8,61,23.63,0.0,1012.54,360.0
2019-06-30 01:10,50.6304416666667,-96.9807683333333,7.9,10.0,144,986.85,24.8,60,23.73,0.0,1012.33,360.0
2019-06-30 01:20,50.63044,-96.980765,7.4,9.1,158,986.89,24.8,61,23.71,0.0,1012.35,360.0
2019-06-30 01:30,50.6304383333333,-96.9807633333333,6.9,8.2,155,986.96,24.6,64,23.74,0.0,1012.45,360.0
2019-06-30 01:40,50.6304433333333,-96.98075,6.9,8.5,161,986.94,24.7,62,23.74,0.0,1012.43,360.0
2019-06-30 01:50,50.6304466666667,-96.980755,5.7,7.5,154,986.87,24.8,64,23.75,0.0,1012.36,360.0
2019-06-30 02:00,50.6304516666667,-96.9807583333333,5.0,6.7,144,986.86,25.1,64,23.74,0.0,1012.34,43.0
2019-06-30 02:10,50.6304316666667,-96.9807783333333,4.9,6.0,142,986.70,25.0,62,23.74,0.0,1012.18,43.0
2019-06-30 02:20,50.63043,-96.9807683333333,5.0,6.5,160,986.64,24.7,64,23.73,0.0,1012.15,43.0
2019-06-30 02:30,50.6304666666667,-96.98081,4.5,5.6,153,986.57,24.5,66,23.73,0.0,1012.08,43.0
2019-06-30 02:40,50.6304466666667,-96.98078,3.9,5.2,94,986.08,24.5,74,23.71,0.0,1011.56,43.0
2019-06-30 02:50,50.630445,-96.9807766666667,7.6,11.7,120,985.74,23.9,76,23.72,0.0,1011.25,43.0
2019-06-30 03:00,50.63044,-96.980775,10.4,15.0,179,986.01,23.5,70,23.74,0.0,1011.54,0.0
2019-06-30 03:10,50.6304533333333,-96.9807716666667,6.5,8.3,162,985.62,23.4,69,23.73,0.0,1011.14,0.0
2019-06-30 03:20,50.630455,-96.9807683333333,6.4,11.6,170,985.31,23.3,71,23.71,0.0,1010.84,0.0
2019-06-30 03:30,50.6304166666667,-96.9807633333333,10.2,13.6,168,985.13,23.4,69,23.73,0.0,1010.64,0.0
2019-06-30 03:40,50.6304366666667,-96.980785,13.4,16.4,171,985.22,23.0,71,23.74,0.0,1010.75,0.0
2019-06-30 03:50,50.6304416666667,-96.9807783333333,10.8,13.6,166,985.36,22.6,75,23.76,0.0,1010.90,0.0
2019-06-30 04:00,50.630445,-96.9807783333333,10.6,12.7,166,985.34,22.6,79,23.76,0.0,1010.88,286.8
2019-06-30 04:10,50.630445,-96.9807766666667,10.8,12.7,170,985.04,22.6,81,23.74,0.0,1010.58,286.8
2019-06-30 04:20,50.6304466666667,-96.980775,10.2,12.3,170,984.91,22.7,79,23.73,0.0,1010.46,286.8
2019-06-30 04:30,50.6304466666667,-96.9807733333333,9.4,11.7,170,984.65,22.8,77,23.72,0.0,1010.18,286.8
2019-06-30 04:40,50.630445,-96.980775,6.8,8.6,177,984.51,22.6,80,23.71,0.0,1010.08,286.8
2019-06-30 04:50,50.630445,-96.9807733333333,6.5,8.4,191,984.55,22.7,76,23.70,0.0,1010.13,286.8
2019-06-30 05:00,50.630445,-96.9807733333333,5.0,6.9,203,984.69,23.0,71,23.69,0.0,1010.27,192.6
2019-06-30 05:10,50.630445,-96.9807733333333,5.3,7.5,234,984.89,23.0,71,23.67,0.0,1010.48,192.6
2019-06-30 05:20,50.630445,-96.9807733333333,5.0,7.0,198,984.69,22.6,73,23.66,0.0,1010.28,192.6
2019-06-30 05:30,50.630445,-96.9807716666667,4.7,6.5,193,984.55,22.5,74,23.66,0.0,1010.17,192.6
2019-06-30 05:40,50.6304283333333,-96.9807566666667,4.3,5.8,200,984.65,22.4,74,23.65,0.0,1010.29,192.6
2019-06-30 05:50,50.6304333333333,-96.9807633333333,6.6,8.9,184,984.65,22.4,75,23.64,0.0,1010.29,192.6
2019-06-30 06:00,50.6304383333333,-96.9807633333333,7.8,9.3,182,984.66,22.3,75,23.63,0.0,1010.30,90.0
2019-06-30 06:10,50.63046,-96.9807716666667,4.2,10.7,316,985.05,22.6,74,23.63,0.0,1010.68,90.0
2019-06-30 06:20,50.6304466666667,-96.9807666666667,4.3,10.5,324,985.06,22.7,72,23.62,0.0,1010.69,90.0
2019-06-30 06:30,50.630445,-96.980765,4.5,8.9,254,985.25,23.2,67,23.62,0.0,1010.86,90.0
2019-06-30 06:40,50.6304433333333,-96.9807633333333,5.8,8.9,311,985.60,23.3,68,23.62,0.0,1011.22,90.0
2019-06-30 06:50,50.6304433333333,-96.980765,5.7,9.1,340,985.43,23.2,72,23.62,0.0,1011.03,90.0
2019-06-30 07:00,50.6304433333333,-96.9807666666667,4.9,9.1,329,985.40,22.5,76,23.60,0.0,1011.03,90.0
2019-06-30 07:10,50.630445,-96.9807666666667,3.5,6.0,354,985.32,22.3,80,23.59,0.0,1010.97,90.0
2019-06-30 07:20,50.630445,-96.9807666666667,6.5,8.5,2,985.02,22.0,82,23.62,0.0,1010.69,90.0
2019-06-30 07:30,50.630445,-96.980765,6.4,8.7,8,985.00,21.9,88,23.63,0.0,1010.67,90.0
2019-06-30 07:40,50.6304433333333,-96.9807683333333,6.1,9.6,7,985.08,21.9,93,23.59,0.0,1010.76,90.0
2019-06-30 07:50,50.6304433333333,-96.98076,5.4,7.9,350,985.18,21.7,96,23.48,0.0,1010.88,90.0
2019-06-30 08:00,50.630445,-96.980765,6.2,7.8,5,985.01,21.5,99,23.60,0.0,1010.69,90.0
2019-06-30 08:10,50.630445,-96.9807666666667,6.4,7.3,34,984.96,21.6,98,23.63,0.0,1010.63,90.0
2019-06-30 08:20,50.6304433333333,-96.980765,4.8,6.8,48,984.96,21.6,98,23.62,0.0,1010.62,90.0
2019-06-30 08:30,50.630445,-96.9807633333333,5.9,6.9,66,984.92,21.7,99,23.64,0.0,1010.56,90.0
2019-06-30 08:40,50.6304466666667,-96.980775,4.3,5.4,65,984.88,21.7,99,23.53,0.0,1010.52,90.0
2019-06-30 08:50,50.6304483333333,-96.9807733333333,2.6,4.4,96,984.79,21.7,99,23.26,0.0,1010.46,90.0
2019-06-30 09:00,50.6304483333333,-96.9807733333333,0.4,1.7,229,984.64,21.4,99,23.46,0.0,1010.33,311.7
2019-06-30 09:10,50.6304483333333,-96.9807733333333,1.9,4.2,251,984.42,21.3,100,23.42,0.0,1010.12,311.7
2019-06-30 09:20,50.6304483333333,-96.9807733333333,3.1,4.9,280,984.62,20.9,100,23.28,0.0,1010.35,311.7
2019-06-30 09:30,50.6304483333333,-96.9807716666667,3.5,5.4,291,984.67,20.6,100,23.46,0.0,1010.42,311.7
2019-06-30 09:40,50.6304483333333,-96.9807716666667,4.4,8.4,290,984.83,20.4,100,23.46,0.0,1010.61,311.7
2019-06-30 09:50,50.6304466666667,-96.9807716666667,1.6,5.1,307,984.68,20.3,100,23.39,0.0,1010.46,311.7
2019-06-30 10:00,50.6304533333333,-96.9807733333333,1.8,4.2,310,984.72,20.5,100,23.49,0.0,1010.48,345.5
2019-06-30 10:10,50.6304416666667,-96.9807683333333,1.4,2.7,287,984.68,20.4,100,23.46,0.0,1010.44,345.5
2019-06-30 10:20,50.6304383333333,-96.980765,3.2,4.0,309,984.73,20.3,100,23.38,0.0,1010.50,345.5
2019-06-30 10:30,50.6304366666667,-96.980765,3.0,3.8,324,984.80,20.1,101,23.49,0.0,1010.58,345.5
2019-06-30 10:40,50.6304116666667,-96.9807483333333,1.5,2.9,276,984.90,20.2,100,23.44,0.0,1010.68,345.5
2019-06-30 10:50,50.6304316666667,-96.9807766666667,1.9,3.1,243,984.87,20.2,100,23.46,0.0,1010.66,345.5
2019-06-30 11:00,50.63044,-96.9807516666667,2.5,3.7,228,984.91,20.1,100,23.39,0.0,1010.71,90.0
2019-06-30 11:10,50.6304433333333,-96.980755,2.2,3.5,240,985.05,20.1,100,23.30,0.0,1010.88,90.0
2019-06-30 11:20,50.6304433333333,-96.98076,2.0,4.1,266,985.13,20.4,100,23.35,0.0,1010.96,90.0
2019-06-30 11:30,50.630445,-96.9807633333333,2.7,4.9,277,985.18,20.4,100,23.29,0.0,1011.01,90.0
2019-06-30 11:40,50.630445,-96.980765,3.2,5.6,283,985.19,20.3,100,23.18,0.0,1011.03,90.0
2019-06-30 11:50,50.630445,-96.9807633333333,3.2,6.2,271,985.27,20.3,100,23.29,0.0,1011.11,90.0
2019-06-30 12:00,50.630425,-96.980745,3.4,5.7,268,985.31,20.5,98,23.30,0.0,1011.14,136.8
2019-06-30 12:10,50.6304383333333,-96.980775,2.9,6.0,250,985.27,20.8,96,23.27,0.0,1011.09,136.8
2019-06-30 12:20,50.630445,-96.980775,2.6,4.7,249,985.21,21.2,94,23.22,0.0,1011.03,136.8
2019-06-30 12:30,50.6304383333333,-96.9807766666667,4.2,6.1,250,985.44,21.4,94,23.24,0.0,1011.24,136.8
2019-06-30 12:40,50.6304466666667,-96.9807633333333,5.0,9.0,266,985.36,21.9,91,23.19,0.0,1011.14,136.8
2019-06-30 12:50,50.6304533333333,-96.9807666666667,5.4,9.1,275,985.28,22.2,88,23.26,0.0,1011.06,136.8
2019-06-30 13:00,50.6304516666667,-96.9807666666667,5.3,8.1,267,985.39,22.3,85,23.27,0.0,1011.16,90.0
2019-06-30 13:10,50.6304516666667,-96.9807683333333,5.8,10.3,269,985.51,22.5,82,23.29,0.0,1011.26,90.0
2019-06-30 13:20,50.63045,-96.980765,5.7,8.6,265,985.62,22.8,77,23.32,0.0,1011.36,90.0
2019-06-30 13:30,50.63045,-96.980765,5.4,8.0,256,985.66,23.1,70,23.36,0.0,1011.39,90.0
2019-06-30 15:10,50.63044,-96.9807733333333,7.3,11.5,243,985.69,25.5,43,23.33,0.0,1011.21,311.7
2019-06-30 15:20,50.6304433333333,-96.9807683333333,8.1,12.5,245,985.53,25.8,43,23.43,0.0,1011.02,311.7
2019-06-30 15:30,50.630445,-96.980765,8.2,12.5,237,985.48,25.9,41,23.50,0.0,1010.94,311.7
2019-06-30 15:40,50.6304466666667,-96.9807666666667,8.5,12.7,226,985.44,26.2,36,23.49,0.0,1010.88,311.7
2019-06-30 15:50,50.63045,-96.9807666666667,7.9,12.1,226,985.39,26.3,34,23.52,0.0,1010.81,311.7
2019-06-30 16:00,50.63045,-96.9807683333333,8.0,11.9,219,985.36,26.4,35,23.60,0.0,1010.77,0.0
2019-06-30 16:10,50.6304483333333,-96.9807683333333,8.4,12.4,226,985.37,26.8,30,23.58,0.0,1010.76,0.0
2019-06-30 16:20,50.63045,-96.9807683333333,9.2,12.8,231,985.36,27.1,28,23.68,0.0,1010.73,0.0
2019-06-30 16:30,50.6304483333333,-96.9807683333333,8.8,12.5,235,985.31,27.3,27,23.66,0.0,1010.65,0.0
2019-06-30 16:40,50.6304483333333,-96.9807666666667,11.1,15.3,212,985.17,27.2,28,23.61,0.0,1010.50,0.0
2019-06-30 16:50,50.63045,-96.9807666666667,10.8,15.4,219,985.12,27.2,28,23.71,0.0,1010.44,0.0
2019-06-30 17:00,50.63045,-96.9807666666667,12.1,16.8,216,985.10,27.2,26,23.76,0.0,1010.41,360.0
2019-06-30 17:10,50.630465,-96.9807916666667,9.9,14.2,223,985.20,27.4,26,23.84,0.0,1010.50,360.0
2019-06-30 17:20,50.6304533333333,-96.9807783333333,12.0,18.7,213,985.15,27.3,27,23.91,0.0,1010.44,360.0
2019-06-30 17:30,50.6304533333333,-96.9807716666667,11.3,18.9,214,985.08,27.5,26,23.92,0.0,1010.35,360.0
2019-06-30 17:40,50.6304516666667,-96.98077,11.6,17.7,222,985.01,27.7,27,23.95,0.0,1010.26,360.0
2019-06-30 17:50,50.6304316666667,-96.9807333333333,11.3,17.4,224,984.91,27.9,26,24.02,0.0,1010.15,360.0
2019-06-30 18:00,50.6304416666667,-96.98075,13.1,18.0,205,984.77,27.6,26,24.05,0.0,1010.00,90.0
2019-06-30 18:10,50.6304433333333,-96.9807583333333,14.6,22.6,222,984.83,27.7,27,24.06,0.0,1010.04,90.0
2019-06-30 18:20,50.6304433333333,-96.9807616666667,14.8,20.9,227,984.72,28.1,26,24.09,0.0,1009.91,90.0
2019-06-30 18:30,50.630445,-96.9807616666667,14.0,22.7,229,984.68,28.5,26,24.14,0.0,1009.86,90.0
2019-06-30 18:40,50.6304433333333,-96.9807616666667,14.5,21.1,234,984.59,28.6,23,24.16,0.0,1009.76,90.0
2019-06-30 18:50,50.630445,-96.9807633333333,14.9,20.6,233,984.56,28.6,22,24.17,0.0,1009.73,90.0
2019-06-30 19:00,50.630445,-96.9807666666667,14.5,24.1,222,984.44,28.7,23,24.16,0.0,1009.59,360.0
2019-06-30 19:10,50.630445,-96.9807683333333,15.7,27.2,231,984.45,28.7,22,24.17,0.0,1009.61,360.0
2019-06-30 19:20,50.6304433333333,-96.980755,15.5,24.3,231,984.45,28.7,24,24.21,0.0,1009.60,360.0
2019-06-30 19:30,50.630445,-96.9807683333333,14.3,22.9,222,984.35,28.5,25,24.22,0.0,1009.50,360.0
2019-06-30 19:40,50.6304433333333,-96.9807666666667,16.7,24.0,219,984.38,28.5,25,24.22,0.0,1009.52,360.0
2019-06-30 19:50,50.6304466666667,-96.98077,14.6,26.2,230,984.38,28.7,24,24.24,0.0,1009.52,360.0
2019-06-30 20:00,50.6304433333333,-96.98077,14.3,24.7,235,984.36,28.7,25,24.26,0.0,1009.50,360.0
2019-06-30 20:10,50.630455,-96.9807833333333,14.6,23.1,234,984.42,28.8,24,24.26,0.0,1009.54,360.0
2019-06-30 20:20,50.6304566666667,-96.98078,14.2,26.9,234,984.37,28.8,24,24.26,0.0,1009.47,360.0
2019-06-30 20:30,50.6304516666667,-96.9807783333333,14.5,22.5,232,984.37,28.8,23,24.24,0.0,1009.46,360.0
2019-06-30 20:40,50.6304533333333,-96.9807783333333,14.0,23.5,224,984.38,29.0,23,24.23,0.0,1009.47,360.0
2019-06-30 20:50,50.6304566666667,-96.9807766666667,15.0,22.9,232,984.35,29.0,21,24.28,0.0,1009.44,360.0
